Portada
METAR-TAF:

METAR-TAF

Aeroports :

Machala, Equador

latitud: 03-26-07S, longitud: 079-58-40W, altitud: 52 m

Observació

L'informe es va fer fa 30 minuts, a les 16:00 UTC
Vent 3 kt del Nord/Nord-Oest
Temperatura 24°C
Humitat 83%
Pressió 1015 hPa
Visibilitat 10 km o més
Cel cobert a una alçada de 2000 ft

METAR: SERO 251600Z 34003KT 9999 OVC020 24/21 Q1015 RMK A2997

Hora: 11:30 (16:30 UTC)


TAF: manca

Observacions i pronòstics meteorològics de més de 4000 aeroports (METAR i TAF).

Les estacions disponibles són els punts grocs i vermells al mapa.

Posi el ratolí al punt desitjat per veure el nom de l'estació.

Feu clic per veure les observacions i els pronòstics meteorològics.

Per canviar el mapa: feu clic els botons verds amb una creu de color negre per apropar; al botó verd amb un guió per allunyar la imatge; o en les fletxes verdes per a mapes adjacents.


METAR-TAF: